Regional Weather Roundup
Issued by NWS

Home | Current Version | Previous Version | Graphics & Text | Print | Product List | Glossary On
Versions: 1 2 3 4 5 6 7 8 9 10 11 12 13 14 15 16 17 18 19 20 21 22 23 24 25 26 27 28 29 30 31 32 33 34 35 36 37 38 39 40 41 42 43 44 45 46 47 48 49 50
718
ASUS43 KMKX 170900
RWRWI

WISCONSIN REGIONAL WEATHER ROUNDUP
NATIONAL WEATHER SERVICE MILWAUKEE/SULLIVAN WI
400 AM CDT THU AUG 17 2017

NOTE: "FAIR" INDICATES FEW OR NO CLOUDS BELOW 12,000 FEET WITH NO
SIGNIFICANT WEATHER AND/OR OBSTRUCTIONS TO VISIBILITY.

WIZ001-002-006>008-014>016-023>028-171000-
NORTHWEST WISCONSIN

CITY           SKY/WX    TMP DP  RH WIND       PRES   REMARKS
SUPERIOR ARPT  DRIZZLE   61  61  99 NE21G31   29.66F
ASHLAND        HVY RAIN  62  61  96 NE10      29.68F FOG
HAYWARD        CLOUDY    65  62  90 E10       29.63F
SIREN          CLOUDY    65  64  96 E7        29.58S
CUMBERLAND     CLOUDY    64  63  94 E8G16     29.58F
RICE LAKE      CLOUDY    66  65  96 E10G16    29.60S
CHETEK         CLOUDY    67  66  99 E12       29.58F
LADYSMITH      LGT RAIN  65  64  97 SE10      29.65F
EAU CLAIRE     CLOUDY    70  68  93 SE9       29.58S
MENOMONIE      CLOUDY    68  68  99 S9G16     29.59R
NEW RICHMOND   CLOUDY    67  66  95 SE10      29.55S
OSCEOLA        CLOUDY    68  68 100 SE9       29.56F
$$

WIZ003>005-009-010-017-018-171000-
NORTH CENTRAL WISCONSIN

CITY           SKY/WX    TMP DP  RH WIND       PRES   REMARKS
MANITOWISH WTR RAIN      60  60 100 NE3       29.72S
ARBOR VITAE    LGT RAIN  62  60  94 E8        29.70F
WOODRUFF       LGT RAIN  62  60  94 E8        29.70F
RHINELANDER    CLOUDY    62  62 100 E12       29.70F
EAGLE RIVER    HVY RAIN  61  61 100 E9        29.72F
LAND O LAKES   RAIN      62  61  95 E3        29.75F
PHILLIPS       CLOUDY    62  62 100 E8        29.67F
TOMAHAWK       LGT RAIN  62  60  95 CALM      29.71R
MEDFORD        HVY RAIN  63  63  99 E7        29.67F
MERRILL        CLOUDY    63  63 100 SE9       29.70S
$$

WIZ029-030-035-036-043>047-171000-
CENTRAL WISCONSIN

CITY           SKY/WX    TMP DP  RH WIND       PRES   REMARKS
WAUSAU         HVY RAIN  65  65 100 E8        29.67F FOG
MOSINEE        CLOUDY    64  64 100 E7        29.69F FOG
MARSHFIELD     CLOUDY    68  66  93 SE6       29.65F FOG
STEVENS POINT  CLOUDY    65  65 100 SE7       29.69F FOG
WAUPACA        CLOUDY    71  71  98 SE3       29.69F FOG
WAUTOMA        NOT AVBL
WISC RAPIDS    CLOUDY    71  70  96 S6        29.67F FOG
CAMP DOUGLAS   CLOUDY    72  72  99 S9        29.65F
$$

WIZ011>013-019>022-031-037>040-048>050-171000-
NORTHEAST WISCONSIN

CITY           SKY/WX    TMP DP  RH WIND       PRES   REMARKS
ANTIGO         CLOUDY    63  63 100 SE12G18   29.71F FOG
SHAWANO        CLOUDY    69  67  92 SE5       29.69F
OCONTO         CLOUDY    69  68  95 SE8       29.71F
STURGEON BAY   NOT AVBL
GREEN BAY      CLOUDY    71  71 100 SE8       29.70F
MANITOWOC      NOT AVBL
APPLETON       CLOUDY    70  70 100 SE9       29.69F
CLINTONVILLE   CLOUDY    68  66  94 SE5       29.69F FOG
OSHKOSH        NOT AVBL
$$

WIZ032>034-041-042-053>061-171000-
SOUTHWEST WISCONSIN

CITY           SKY/WX    TMP DP  RH WIND       PRES   REMARKS
LA CROSSE      PTCLDY    72  66  81 S14       29.62F
SPARTA         CLOUDY    71  68  92 S3        29.65S
VIROQUA        MOCLDY    69  69  98 SW9G16    29.68S
BOSCOBEL       NOT AVBL
PRAIRIE DU CHI PTCLDY    71  65  81 SW7       29.68F
PLATTEVILLE    CLOUDY    73  73 100 S8        29.72F
$$

WIZ056-057-062-063-064-067-068-171000-
SOUTH CENTRAL WISCONSIN

CITY           SKY/WX    TMP DP  RH WIND       PRES   REMARKS
REEDSBURG      MOCLDY    73  73 100 S8        29.68S
BARABOO/DELLS  MOCLDY    73  70  92 SW8       29.69S
LONE ROCK      NOT AVBL
MINERAL POINT  CLOUDY    73  73 100 SW8       29.72F
MADISON        NOT AVBL
MIDDLETON      CLOUDY    75  75 100 SW7       29.71S
WATERTOWN      CLOUDY    73  73 100 S9        29.71F
MONROE         CLOUDY    72  70  94 SW14      29.73F
JANESVILLE     DRIZZLE   73  73 100 S10       29.73S
$$

WIZ051-052-058>065-066-070>072-171000-
SOUTHEAST WISCONSIN

CITY           SKY/WX    TMP DP  RH WIND       PRES   REMARKS
MILWAUKEE      NOT AVBL
WAUKESHA       CLOUDY    70  70 100 S7        29.75F
MILWAUKEE/TIMM CLOUDY    72  68  88 S8        29.73F
RACINE         NOT AVBL
KENOSHA        NOT AVBL
FOND DU LAC    NOT AVBL
SHEBOYGAN      NOT AVBL
WEST BEND      CLOUDY    72  72 100 S7        29.72F
JUNEAU         CLOUDY    73  71  96 S9        29.73S
$$

LSZ147-162-171000-
LAKE SUPERIOR

STATION/POSITION TIME  TEMP    WIND        PRES    WAVE
                       AIR SEA DIR/SP/G            HT/PER
                 (UTC) (F)     (DEG/KT/KT) (MB)    (FT/S)
W MID LAKE BUOY  0750   62 60   50/ 10/ 12 1008.0F   2/ 4
DEVILS ISLAND    0800   62      50/ 21/ 24 1006.3F
SAXON HARBOR     0840   63      40/  8/ 11 1004.1F
$$

LMZ867-665-643>646-171000-
LAKE MICHIGAN

STATION/POSITION TIME  TEMP    WIND        PRES    WAVE
                       AIR SEA DIR/SP/G            HT/PER
                 (UTC) (F)     (DEG/KT/KT) (MB)    (FT/S)
S GREEN BAY BUOY 0830   70 72  150/ 17/ 23 1005.9F
N MID LAKE BUOY  0750   69 68  120/ 14/ 16 1008.8F   2/ 3
NORTHPORT PIER   0840   69     150/ 11/ 16 1007.5F
KEWAUNEE LAKESHO 0830   70     150/ 16/ 22 1006.0F
SHEBOYGAN LAKESH 0800   72     170/ 14/ 16 1006.4F
PORT WASHINGTON  0840   73     200/  4/  9 1007.5F
ATWATER BUOY     0709   73 71  160/ 10/ 12 1007.9F
MILWAUKEE LAKESH 0830   75     190/ 11/ 13   N/A
S MID LAKE BUOY  0750   75 71  170/ 14/ 16 1008.0F   2/ 4
KENOSHA   LAKESH 0800   75     210/  7/ 12 1007.5
$$

TC  - TEMPERATURE IN CELSIUS
VSB - VISIBILITY IN STATUTE MILES
WCI - WIND CHILL INDEX
HX  - HEAT INDEX





USA.gov is the U.S. government's official web portal to all federal, state and local government web resources and services.